#timestamp,LO_Frequency,Hit,StdDev 
1623034815.4,286047001.0,N
1623034835.3,286046998.8,N
1623034855.1,286046998.6,N
1623034875.9,286046996.5,N
1623034895.7,286046998.4,N
1623034915.5,286046998.3,N
1623034935.4,286046998.6,N
1623034955.2,286047000.2,N
1623034975.0,286047000.5,N
1623034976.0,286047000.5,N
1623034995.8,286047000.9,N
1623035015.6,286046998.6,N
1623035035.5,286047001.1,N
1623035055.3,286047002.4,N
1623035075.1,286047002.3,N
1623035095.9,286047002.3,N
1623035115.7,286047002.6,N
1623035135.5,286047003.6,N
1623035155.4,286047001.4,N
1623035175.2,286047002.7,N
1623035195.1,286047000.1,N
1623035196.0,286047000.1,N
1623035215.8,286047000.1,N
1623035235.6,286047000.7,N
1623035255.5,286047000.9,N
1623035275.3,286046999.9,N
1623035295.2,286047000.5,N
1623035315.9,286047001.2,N
1623035335.7,286047002.0,N
1623035355.6,286047001.5,N
1623035375.4,286047004.3,N
1623035395.2,286047004.4,N
1623035415.1,286047001.8,N
1623035416.0,286047001.8,N
1623035435.8,286047004.1,N
1623035455.7,286047002.2,N
1623035475.5,286046999.9,N
1623035495.3,286047002.4,N
1623035515.2,286047001.9,N
1623035535.9,286047004.0,N
1623035555.7,286047002.1,N
1623035575.6,286047001.4,N
1623035595.4,286047001.9,N
1623035615.3,286047002.8,N
1623035635.1,286047002.3,N
1623035636.0,286047002.3,N
1623035655.8,286047002.6,N
1623035675.7,286047002.5,N
1623035695.5,286046999.7,N
1623035715.3,286047000.8,N
1623035735.2,286046999.7,N
1623035755.0,286047002.2,N
1623035755.9,286047002.2,N
1623035775.8,286046999.9,N
1623035795.6,286047002.5,N
1623035815.4,286047004.2,Y
1623035835.3,286047002.7,P
1623035855.1,286047000.4,N
1623035875.8,286047001.0,N
1623035895.7,286047000.4,N
1623035915.5,286046999.8,N
1623035935.4,286046998.2,N
1623035955.2,286047000.7,N
1623035975.0,286047000.1,N
1623035975.9,286047000.1,N
1623035995.8,286047002.6,N
1623036015.6,286047001.5,N
1623036035.4,286047002.6,N
1623036055.3,286047002.2,N
1623036075.1,286047000.8,N
1623036095.9,286047001.0,N
1623036115.7,286047000.4,N
1623036135.5,286047002.7,N
1623036155.4,286047000.2,N
1623036175.2,286047000.2,N
1623036195.0,286047001.5,N
1623036195.9,286047001.5,N
1623036215.8,286047004.4,Y
1623036235.6,286046998.7,P
1623036255.5,286047001.0,N
1623036275.3,286047002.8,N
1623036295.1,286047001.0,N
1623036315.9,286047000.4,N
1623036335.7,286047000.4,N
1623036355.6,286047000.9,N
1623036375.4,286046999.6,N
1623036395.2,286046999.3,N
1623036415.1,286047000.3,N
1623036416.0,286047000.3,N
1623036435.8,286046998.2,N
1623036455.6,286046999.6,N
1623036475.5,286046999.3,N
1623036495.3,286046999.2,N
1623036515.2,286046998.9,N
1623036535.9,286046998.3,N
1623036555.7,286046999.1,N
1623036575.6,286046998.5,N
1623036595.4,286047000.5,N
1623036615.3,286046998.1,N
1623036635.1,286046998.9,N
1623036636.0,286046998.9,N
1623036655.8,286046996.5,Y
1623036675.7,286046996.9,P
1623036695.5,286046999.2,N
1623036715.4,286046998.1,N
1623036735.2,286047000.2,N
1623036755.0,286047002.7,N
1623036755.9,286047002.7,N
1623036775.8,286046999.7,N
1623036795.6,286047001.0,N
1623036815.4,286047000.0,N
1623036835.3,286047001.1,N
1623036855.1,286046998.9,N
1623036875.9,286046998.1,N
1623036895.7,286046998.8,N
1623036915.5,286047000.1,N
1623036935.4,286047001.9,N
1623036955.2,286046999.7,N
1623036975.0,286047002.2,N
1623036976.0,286047002.2,N
1623036995.8,286047002.2,N
1623037015.6,286047002.1,N
1623037035.5,286046998.2,N
1623037055.3,286046998.2,N
1623037075.1,286047001.2,N
1623037095.9,286047000.8,N
1623037115.7,286047001.0,N
1623037135.6,286046998.4,N
1623037155.4,286046996.8,N
1623037175.2,286046998.9,N
1623037195.1,286046999.0,N
1623037196.0,286046999.0,N
1623037215.8,286047000.6,N
1623037235.7,286047000.0,N
1623037255.5,286047000.4,N
1623037275.3,286047002.4,N
1623037295.2,286047000.0,N
1623037315.0,286046998.5,N
1623037315.9,286046998.5,N
1623037335.7,286046998.2,N
1623037355.6,286046998.3,N
1623037375.4,286046998.3,N
1623037395.3,286046998.4,N
1623037415.1,286047001.1,N
1623037416.0,286047001.1,N
1623037435.8,286046998.2,N
1623037455.7,286047000.4,N
1623037475.5,286047000.2,N
1623037495.3,286046998.1,N
1623037515.2,286047000.6,N
1623037535.0,286046998.5,N
1623037535.9,286046998.5,N
1623037555.8,286046999.7,N
1623037575.6,286046999.7,N
1623037595.4,286047002.8,N
1623037615.3,286046999.7,N
1623037635.1,286046999.7,N
1623037655.8,286047000.9,N
1623037675.7,286046999.0,N
1623037695.5,286046996.6,N
1623037715.4,286047001.2,N
1623037735.2,286046999.5,N
1623037755.0,286046998.9,N
1623037755.9,286046998.9,N
1623037775.8,286046997.3,N
1623037795.6,286046997.3,N
1623037815.4,286046997.9,N
1623037835.3,286046996.5,N
1623037855.1,286047000.7,N
1623037875.9,286046998.2,N
1623037895.7,286047000.7,N
1623037915.5,286047001.2,N
1623037935.4,286046996.9,N
1623037955.2,286046998.0,N
1623037975.0,286046996.9,N
1623037975.9,286046996.9,N
1623037995.8,286046999.2,N
1623038015.6,286046997.1,N
1623038035.5,286046997.9,N
1623038055.3,286046996.4,N
1623038075.1,286046996.0,N
1623038095.9,286046993.3,Y
1623038115.7,286046997.7,P
1623038135.5,286046995.3,P
1623038155.4,286046995.2,P
1623038175.2,286046996.4,N
1623038195.1,286046996.3,N
1623038196.0,286046996.3,N
1623038215.8,286046995.2,Y
1623038235.6,286046998.9,P
1623038255.5,286046996.7,N
1623038275.3,286046997.3,N
1623038295.2,286046997.1,Y
1623038315.9,286047002.4,P
1623038335.7,286047000.2,N
1623038355.6,286047000.3,N
1623038375.4,286047001.0,N
1623038395.2,286046999.9,N
